NADEZHDA 7 
1 27534U 02046A   03117.98166202  .00000067  00000-0  56387-4 0  1289
2 27534  82.9306  92.6132 0037805  50.8080 309.6422 13.72429523 29272
LANDSAT 4 
1 13367U 82072A   03118.53076350  .00002229  00000-0  19008-3 0  5162
2 13367  98.2167 223.8812 0007310 239.1861 120.8641 14.98850168108182
TDRS 1 
1 13969U 83026B   03111.70280098 -.00000309  00000-0  10000-3 0  6328
2 13969  11.5518  24.1108 0003681   1.9789  27.2394  1.00265010 46450
LANDSAT 5 
1 14780U 84021A   03118.67308976  .00000489  00000-0  11879-3 0  8869
2 14780  98.2519 183.0006 0002400 189.3406 170.7832 14.57084534 18964
ERBS 
1 15354U 84108B   03117.67814726  .00002006  00000-0  12977-3 0  4455
2 15354  56.9924  34.0040 0031155 290.1689  69.5991 15.12367541 12339
TDRS 3 
1 19548U 88091B   03117.86285223 -.00000192  00000-0  10000-3 0    78
2 19548   7.3171  58.4949 0002516 338.8315 213.5464  1.00274444 40658
TDRS 4 
1 19883U 89021B   03117.51823218 -.00000270  00000-0  10000-3 0  2550
2 19883   5.2574  74.0950 0003756 309.1434 337.5261  1.00267925224225
HST 
1 20580U 90037B   03117.92570457  .00001813  00000-0  13620-3 0  4077
2 20580  28.4669 313.8971 0003697 268.8388 236.0525 14.98107179512897
TDRS 5 
1 21639U 91054B   03118.05319669  .00000082  00000-0  10000-3 0   357
2 21639   4.4402  79.3377 0001877 316.4048  24.7565  1.00275919 42977
UARS 
1 21701U 91063B   03118.13922272  .00000672  00000-0  68423-4 0  8802
2 21701  56.9793 114.4778 0005236  84.6885 275.4763 15.03003073636022
TOPEX/POSEID
1 22076U 92052A   03117.83682635 -.00000038  00000-0  10000-3 0  5877
2 22076  66.0447  48.2317 0007912 269.3635  90.6513 12.80930959501044
TDRS 6 
1 22314U 93003B   03117.59649058 -.00000283  00000-0  10000-3 0  4808
2 22314   3.6971  83.7043 0002099 327.2386 331.9895  1.00267583 37691
TDRS 7 
1 23613U 95035B   03114.42346799  .00000082  00000-0  10000-3 0  3280
2 23613   5.9404  69.3066 0002449 335.0758 148.6420  1.00272915 28472
XTE 
1 23757U 95074A   03118.27565658  .00006437  00000-0  27885-3 0  3195
2 23757  22.9820 104.8760 0009534 112.1061 248.0568 15.18978720403208
TRMM 
1 25063U 97074A   03118.19904309  .00028480  00000-0  39704-3 0   473
2 25063  34.9726  47.5585 0001240 251.3936 108.6654 15.55897107310652
ETS 7 
1 25064U 97074B   03117.99295299  .00005365  00000-0  26740-3 0  1746
2 25064  34.9626  87.9170 0002801 194.9814 165.0833 15.16920768299087
ISS ZARYA 
1 25544U 98067A   03118.75759194  .00091353  00000-0  11576-2 0  9410
2 25544  51.6319 268.5856 0006339  65.8630  26.6198 15.58682396253292
LANDSAT 7 
1 25682U 99020A   03118.30504314  .00000537  00000-0  12932-3 0   611
2 25682  98.2042 186.1077 0001743  93.6245 266.5152 14.57108011214602
FUSE 1 
1 25791U 99035A   03117.96198940  .00000540  00000-0  10940-3 0  8522
2 25791  24.9829  30.2539 0010497 124.5628 235.5873 14.41321998202493
TERRA 
1 25994U 99068A   03118.25641795  .00000736  00000-0  17327-3 0  9228
2 25994  98.1873 193.3692 0000893  88.8389 271.2914 14.57148061178676
TDRS 8 
1 26388U 00034A   03118.05506953  .00000090  00000-0  00000+0 0  6243
2 26388   4.6657 280.1057 0003208  89.1327  55.3833  1.00274307 10454
EO 1 
1 26619U 00075A   03118.23706635  .00001001  00000-0  23213-3 0  8389
2 26619  98.2035 186.2930 0001922 103.6762 256.4650 14.57103527129231
TIMED 
1 26998U 01055B   03118.54375971  .00001107  00000-0  14133-3 0  4527
2 26998  74.0702 100.4345 0000800 173.9755 186.1433 14.82765099 75074
TDRS 9 
1 27389U 02011A   03117.43614404  .00000108  00000-0  00000-0 0  2656
2 27389   7.9469 285.8358 0006213  97.7004 198.5457  1.00270330  5688
AQUA 
1 27424U 02022A   03117.93001527 -.00003508  00000-0 -76962-3 0  3584
2 27424  98.2076  58.4717 0002292  23.9791 336.1514 14.57070061 52237
TDRS 10 
1 27566U 02055A   03117.43429138  .00000109  00000-0  00000+0 0  1197
2 27566   6.6943 296.1008 0003771  76.5756 207.9699  1.00277389  1512
SORCE 
1 27651U 03004A   03118.20447476  .00001568  00000-0  21866-3 0   958
2 27651  39.9951  68.8048 0027361 252.2878 107.4924 14.80093088 13693
LES 9 
1 08747U 76023B   03115.31095779 -.00000093  00000-0  10000-3 0  9374
2 08747  11.0214 214.7440 0027254 236.6922 129.8210  1.00274702 44913
MARISAT 2 
1 09478U 76101A   03112.80806852 -.00000268  00000-0  10000-3 0  2777
2 09478  13.2271  11.8761 0000571  97.8590 357.7287  1.00270330 40415
COMSTAR 4 
1 12309U 81018A   03114.91467762 -.00000070  00000-0  00000+0 0  3502
2 12309  11.6934  27.0738 0001888  14.2637 210.4986  1.00275933 82679
SATCOM 5 
1 13631U 82105A   03114.83672737 -.00000109  00000-0  10000-3 0  8020
2 13631   8.5909  48.2301 0004264 257.2276 102.6481  1.00272385 41603
TDRS 1 
1 13969U 83026B   03111.70280098 -.00000309  00000-0  10000-3 0  6328
2 13969  11.5518  24.1108 0003681   1.9789  27.2394  1.00265010 46450
SBS 4 
1 15235U 84093B   03118.25787981 -.00000251  00000-0  10000-3 0  6552
2 15235   7.3847  56.8804 0001893 342.5250 192.2370  1.00270875 45148
NATO 3D 
1 15391U 84115A   03084.24949076 -.00000194  00000-0  10000-3 0   646
2 15391   4.1455  50.4040 0003581 262.4806 297.3788  1.00236989 67250
NAHUEL I1 AN
1 15642U 85028B   03117.25375764 -.00000287  00000-0  10000-3 0  5619
2 15642   4.9455  77.4870 0000758 355.0056 170.4745  1.00271417 71856
GSTAR 1 
1 15677U 85035A   03111.91189446 -.00000103  00000-0  10000-3 0  3538
2 15677   5.4644  72.7299 0007118 247.6129 112.2673  1.00271877 40431
INTELSAT 511
1 15873U 85055A   03115.60650965 -.00000231  00000-0  10000-3 0  6510
2 15873   7.4814  56.9764 0004192 350.9297 354.1198  1.00272560 39903
MORELOS 2 
1 16274U 85109B   03117.47816334 -.00000069  00000-0  00000+0 0  4148
2 16274   3.8754  82.0483 0002387 322.2639 233.6711  1.00272056 53139
BRASILSAT 2 
1 16650U 86026B   03117.25107694 -.00000288  00000-0  10000-3 0   787
2 16650   5.2791  73.2847 0001378 336.4168 192.4966  1.00271791 42499
GOES 7 
1 17561U 87022A   03117.46239071  .00000035  00000-0  10000-3 0  9412
2 17561   7.7303  55.0987 0004032 285.4971 220.3343  1.00276239 42420
OPTUS A3 AUS
1 18350U 87078A   03117.02311101 -.00000085  00000-0  10000-3 0  1594
2 18350   5.2576  70.0069 0003691 331.3991 345.5025  1.00272268 56670
NSS 513 
1 19121U 88040A   03117.46533010  .00000062  00000-0  10000-3 0  2139
2 19121   6.0184  68.6453 0003691 336.9105 160.1326  1.00274452 31258
GSTAR 3 
1 19483U 88081A   03116.80506217 -.00000111  00000-0  10000-3 0  4173
2 19483  11.2006  39.0621 0007384 334.0801  25.8157  1.00272219 49868
TDRS 3 
1 19548U 88091B   03117.86285223 -.00000192  00000-0  10000-3 0    78
2 19548   7.3171  58.4949 0002516 338.8315 213.5464  1.00274444 40658
ASTRA 1A 
1 19688U 88109B   03116.91447918  .00000026  00000-0  10000-3 0  6003
2 19688   1.5529  93.3472 0004591 287.6966 167.8558  1.00273372 32872
TDRS 4 
1 19883U 89021B   03117.51823218 -.00000270  00000-0  10000-3 0  2550
2 19883   5.2574  74.0950 0003756 309.1434 337.5261  1.00267925224225
SIRIUS MARCO
1 20193U 89067A   03115.64756888 -.00000116  00000-0  10000-3 0  7976
2 20193   3.0772  85.6638 0003500 339.8039   7.9150  1.00271313 33315
INTELSAT 602
1 20315U 89087A   03116.99254791  .00000146  00000-0  10000-3 0  8343
2 20315   1.2444  92.8691 0000478  23.7187 128.1823  1.00273758 47223
SKYNET 4A 
1 20401U 90001A   03111.05798183 -.00000254  00000-0  10000-3 0  8494
2 20401   5.3973  48.9494 0002726 327.6600 178.9646  1.00270363 45030
LEASAT 5 
1 20410U 90002B   03113.73851708 -.00000326  00000-0  00000+0 0  1415
2 20410   4.7373  33.2173 0003086 358.3807 185.6721  1.00270308 33910
INTELSAT 603
1 20523U 90021A   03111.98737054 -.00000168  00000-0  00000+0 0  4038
2 20523   0.6872  94.5230 0001673 309.0395 141.5651  1.00270894 40936
ASIASAT 1 
1 20558U 90030A   03114.41835225  .00000074  00000-0  10000-3 0  9198
2 20558   3.4353  85.3315 0001158 353.7179 149.9708  0.99241811 47784
PALAPA B2R 
1 20570U 90034A   03113.89102119  .00000129  00000-0  10000-3 0  8815
2 20570   2.5953  89.7650 0001160 306.3304 178.6928  1.00274573 46057
INSAT 1D 
1 20643U 90051A   03117.96412597 -.00000099  00000-0  10000-3 0  9178
2 20643   4.3659  80.2255 0017164 331.1158 226.6574  1.00286496 34002
INTELSAT 604
1 20667U 90056A   03116.61151564 -.00000149  00000-0  00000+0 0  6374
2 20667   0.9745  94.2594 0000863 279.9809 217.0989  1.00270754 49849
COSMOS 2085 
1 20693U 90061A   03112.34776420 -.00000132  00000-0  10000-3 0  2226
2 20693   7.8752  52.8924 0001324 353.1635   6.7716  1.00261430 46708
SKYNET 4C 
1 20776U 90079A   03115.89109955 -.00000027  00000-0  10000-3 0  9313
2 20776   4.9258  62.7861 0000876  26.8486  83.5998  1.00270968 46181
EUTELSAT 2-F
1 20777U 90079B   03117.94668573 -.00000101  00000-0  10000-3 0   626
2 20777   3.6691  83.8627 0007015 357.3508 191.0511  1.00271267 26785
SBS 6 
1 20872U 90091A   03117.30162830 -.00000261  00000-0  10000-3 0   459
2 20872   0.0514  88.5478 0001891 325.3288 195.5262  1.00270242 34309
GALAXY 6 
1 20873U 90091B   03116.15868521 -.00000122  00000-0  00000-0 0  4537
2 20873   0.4342  97.8425 0004410 313.0022 309.1873  0.99755441 40469
INMARSAT 2-F
1 20918U 90093A   03118.54155568 -.00000115  00000-0  00000+0 0  8641
2 20918   2.1548  47.9153 0003343  10.0099 157.7864  1.00083918 42197
SATCOM C1 
1 20945U 90100A   03115.59647056 -.00000265  00000-0  10000-3 0  2049
2 20945   0.0065 277.9455 0002297 104.7545   7.6769  1.00266816 43325
GSTAR 4 
1 20946U 90100B   03117.26605851 -.00000098  00000-0  10000-3 0  4027
2 20946   0.6271  95.9518 0003545 257.7278 211.9575  1.00271883 40465
